LiveATC.Net - Listen to live air traffic control over the Internet!
Airport/ARTCC Code
Frequency Search
(e.g., 124.400, 128.75)
Site-wide search
 


Browse LiveATC Feeds
Top 50 LiveATC Feeds
LiveATC Feed Map
Bad Weather Areas

LiveATC FAQ
Offer LiveATC feed
Contact LiveATC.net
Press Inquiries

LiveATC on iPhone
LiveATC on Android

Windows Phone
Windows 8/10

LiveATC Mobile
(Mobile browser)

ATC Audio Archives
Interesting Recordings

LiveATC Forums

Home Page
About LiveATC.net
Make a Donation
Terms of Use
Privacy Policy

Canadian Air Freqs

AIRMETs/SIGMETs

FAA Airport Status
Nat'l Airspace Status
Arrival Demand Charts


Server Software By:
Icecast.org
Liquidsoap

Select an area of interest:
U.S. Feeds: Class B Airports | Class C Airports | Class D/Other Airports | ARTCC (Centers)
International Feeds: Canada | Europe | Oceania | Asia | South America | North/Central America | Africa
Misc Feeds: HF Feeds
Search by ICAO/IATA airport code:   (e.g., kbos, kjfk, lax, eham, etc.)


Currently Available Live Feeds: 2446
Status Updated: Thu Sep 19 2019 09:44:04 UTC


NOTICE

Unauthorized use prohibited. See LiveATC.net Terms of Service

Africa Airport Feeds

 

FIMP Twr/App/Ctr #1 (Archives)
Plaine Magnien, Mauritius

Feed Status: UP
Listen in your browser - HTML5 player(in browser, HTML5)
Click here to listen with your own player(launches your MP3 player)

FIMP 190900Z 13009KT 9999 SCT017 26/18 Q1018


Listeners: 0 out of 758 total

FIMP Approach: 119.100
FIMP Tower: 118.100
FMEE Approach/Departure: 127.200
Mauritius Centre: 129.300

FIMP Twr/App/Ctr #2 (Archives)
Plaine Magnien, Mauritius

Feed Status: UP
Listen in your browser - HTML5 player(in browser, HTML5)
Click here to listen with your own player(launches your MP3 player)

FIMP 190900Z 13009KT 9999 SCT017 26/18 Q1018


Listeners: 0 out of 758 total

FIMP Approach: 119.100
FIMP Tower: 118.100
Mauritius Centre: 129.300

FMEE Tower
Sainte-Marie, Reunion

Feed Status: DOWN
Offline since: 2019-09-10 00:09:39 UTC

FMEE 190900Z AUTO 08009KT 9999 OVC033 24/19 Q1018 NOSIG

Gillot Tower: 118.400

FMEP Info (Archives)
Saint-Pierre, Reunion

Feed Status: UP
Listen in your browser - HTML5 player(in browser, HTML5)
Click here to listen with your own player(launches your MP3 player)

FMEP 190900Z AUTO 16013KT 9999 FEW054 25/18 Q1018 NOSIG


Listeners: 0 out of 758 total

Saint-Pierre Info: 122.400

FMMI Twr/App/Center (Archives)
Antananarivo, Madagascar

Feed Status: UP
Listen in your browser - HTML5 player(in browser, HTML5)
Click here to listen with your own player(launches your MP3 player)

FMMI 190900Z VRB05KT 9999 FEW023 28/07 Q1022 NOSIG


Listeners: 3 out of 758 total

Ivato Approach: 125.700
Ivato Tower: 120.100
Tana Control: 128.900